Location: ???????
(55.3754°N, 39.3545°E)
Time: 07:41:34
(UTC+00:00)

Cosmos 1892 Rocket - Pass Details

Date: 14 April 2026
Orbit: 599 x 626 km, 82.5° (Epoch: 13 May)

Event Time Altitude Azimuth Distance (km) Brightness Sun altitude
Rises 21:38:07 0° 345° (NNW) 2,923 8.2 -24.9°
Reaches altitude 10° 21:40:24 10° 341° (NNW) 2,008 7.0 -24.9°
Enters shadow 21:44:21 52° 286° (WNW) 775 4.0 -24.8°
